Weather Roundup
Issued by NWS Chicago, IL

Home | Current Version | Previous Version | Graphics & Text | Print | Product List | Glossary On
Versions: 1 2 3 4 5 6 7 8 9 10 11 12 13 14 15 16 17 18 19 20 21 22 23 24 25 26 27 28 29 30 31 32 33 34 35 36 37 38 39 40 41 42 43 44 45 46 47 48 49 50
000
NZUS59 KLOT 222222
HRRLOT

CHICAGO AREA WEATHER ROUNDUP
NATIONAL WEATHER SERVICE CHICAGO/ROMEOVILLE IL
500 PM CDT FRI MAY 22 2015

NOTE: "FAIR" INDICATES FEW OR NO CLOUDS BELOW 12,000 FEET WITH NO
SIGNIFICANT WEATHER AND/OR OBSTRUCTIONS TO VISIBILITY.

* THESE STATIONS ARE NOT UNDER NWS QUALITY CONTROL. THEY ALSO MAY NOT
  REPORT WEATHER SUCH AS PRECIPITATION OR FOG.

ILZ005-006-012>014-019>023-222300-
NORTHEAST ILLINOIS

CITY           SKY/WX    TMP DP  RH WIND       PRES   REMARKS
OHARE          PTSUNNY   62  25  24 E10       30.24S
MIDWAY         PTSUNNY   63  24  22 E16       30.26R
AURORA         PTSUNNY   73  35  25 NE5       30.22S
LANSING*       MOSUNNY   59  31  35 NE12      30.26F
JOLIET*        CLOUDY    71  42  35 E14       30.23R
WAUKEGAN       SUNNY     54  27  35 E9        30.26F
DUPAGE AIRPORT PTSUNNY   68  34  28 E13       30.22S
WHEELING       MOSUNNY   59  23  25 NE10      30.27F
KANKAKEE*      CLOUDY    72  42  33 NE9       30.22S
MORRIS*        CLOUDY    74  38  27 SE5       30.20S
LEWIS AIRPORT* PTSUNNY   67  35  31 E13       30.24R
NORTHERLY IS     N/A     51  36  56 N10         N/A
$$

WIZ051-052-058>065-066-070>072-222300-
SOUTHEAST WISCONSIN

CITY           SKY/WX    TMP DP  RH WIND       PRES   REMARKS
MILWAUKEE      PTSUNNY   56  29  35 E7        30.26F
KENOSHA*       SUNNY     57  28  33 E12       30.25F
RACINE*        SUNNY     55  28  35 E10       30.28F
BURLINGTON     SUNNY     64  34  32 SE8       30.23F
WAUKESHA       MOSUNNY   64  36  34 SE6       30.24F
WEST BEND      SUNNY     61  28  29 E9        30.25S
$$

INZ001>003-010>013-019-020-222300-
NORTHWEST INDIANA

CITY           SKY/WX    TMP DP  RH WIND       PRES   REMARKS
GARY*          PTSUNNY   55  37  50 NE9       30.28R
MICHIGAN CITY* NOT AVBL
RENSSELAER*    NOT AVBL
VALPARAISO       N/A     67  33  28 NE8       30.25R
$$

LMZ740>746-222300-
SOUTHERN LAKE MICHIGAN

STATION/POSITION TIME  SKY/WX   TEMP WIND        PRES    VSBY
                                AIR  DIR/SP/G
                 (UTC)          (F)  (DEG/KT/KT) (MB)    (MI)
HARRISON CRIB    2200            48   50/ 10/ 11   N/A
BURNHAM HARBOR   2200            52  360/  7/ 10   N/A
CALUMET HARBOR   2100            51   10/  6/  9   N/A
BURNS HARBOR     2100            52   50/ 13/ 14 1025.1F
MICHIGAN CITY    2200            52   30/ 12/ 13   N/A
$$

ABBREVIATIONS USED IN REMARKS
   TC - TEMPERATURE IN CELSIUS
  WCI - WIND CHILL INDEX
   HX - HEAT INDEX
  VSB - VISIBILITY
$$



USA.gov is the U.S. government's official web portal to all federal, state and local government web resources and services.